Regional Weather Roundup
Issued by NWS

Home | Current Version | Previous Version | Text Only | Print | Product List | Glossary Off
Versions: 1 2 3 4 5 6 7 8 9 10 11 12 13 14 15 16 17 18 19 20 21 22 23 24 25 26 27 28 29 30 31 32 33 34 35 36 37 38 39 40 41 42 43 44 45 46 47 48 49 50

000
ASUS43 KMKX 100910
RWRWI

WISCONSIN REGIONAL WEATHER ROUNDUP
NATIONAL WEATHER SERVICE MILWAUKEE/SULLIVAN WI
300 AM CST SUN DEC 10 2017

NOTE: "FAIR" INDICATES FEW OR NO CLOUDS BELOW 12,000 FEET WITH NO
SIGNIFICANT WEATHER AND/OR OBSTRUCTIONS TO VISIBILITY.

WIZ001-002-006>008-014>016-023>028-101000-
NORTHWEST WISCONSIN

CITY           SKY/WX    TMP DP  RH WIND       PRES   REMARKS
SUPERIOR ARPT  CLOUDY    22  17  80 S5        29.81S WCI  15
ASHLAND        CLOUDY    20  14  77 SW5       29.82R WCI  13
HAYWARD        CLOUDY    18  14  84 S3        29.80S
SIREN          CLOUDY    21  16  80 CALM      29.80F
CUMBERLAND     CLOUDY    19  14  79 CALM      29.79F
RICE LAKE      CLOUDY    19  17  90 CALM      29.82F
CHETEK         CLOUDY    18  16  90 CALM      29.82S
LADYSMITH      CLOUDY    17  14  88 S5        29.82F WCI  10
EAU CLAIRE     CLOUDY    18  15  88 CALM      29.82F
MENOMONIE      CLOUDY    19  17  89 SE3       29.82F
NEW RICHMOND   CLOUDY    16  13  90 CALM      29.80F
OSCEOLA        CLOUDY    18  15  88 E5        29.83F WCI  11
$$

WIZ003>005-009-010-017-018-101000-
NORTH CENTRAL WISCONSIN

CITY           SKY/WX    TMP DP  RH WIND       PRES   REMARKS
MANITOWISH WTR CLOUDY    10  10  99 CALM      29.75F
ARBOR VITAE    CLOUDY    11   9  90 CALM      29.76S
WOODRUFF       CLOUDY    11   9  90 CALM      29.76S
RHINELANDER    CLOUDY     8   6  92 SW3       29.76F
EAGLE RIVER    CLOUDY    11   8  86 CALM      29.75F
LAND O LAKES   CLOUDY    13  10  90 CALM      29.76S
PHILLIPS       CLOUDY    13  12  94 SW3       29.77F
TOMAHAWK       CLOUDY    12  10  89 CALM      29.78F
MEDFORD        CLOUDY    14  11  87 S3        29.79S
MERRILL        CLOUDY    15  11  85 CALM      29.80F
$$

WIZ029-030-035-036-043>047-101000-
CENTRAL WISCONSIN

CITY           SKY/WX    TMP DP  RH WIND       PRES   REMARKS
WAUSAU         CLOUDY    15  11  83 SW7       29.80F WCI   5
MOSINEE        CLOUDY    16  12  86 S6        29.83R FOG     WCI   7
MARSHFIELD     CLOUDY    15  11  83 S5        29.80F WCI   8
STEVENS POINT  CLOUDY    15  10  82 S3        29.83F
WAUPACA        CLOUDY    19  12  72 S6        29.87F WCI  11
WAUTOMA        CLOUDY    17  11  77 S3        29.88F
WISC RAPIDS    PTCLDY    17  11  77 S5        29.84F WCI  10
CAMP DOUGLAS   CLOUDY    18  14  82 CALM      29.84F
$$

WIZ011>013-019>022-031-037>040-048>050-101000-
NORTHEAST WISCONSIN

CITY           SKY/WX    TMP DP  RH WIND       PRES   REMARKS
ANTIGO         CLOUDY    12   9  88 SW3       29.78F
SHAWANO        CLOUDY    19  12  76 SW5       29.86F WCI  12
OCONTO         CLOUDY    16  11  80 SW5       29.86F WCI   9
STURGEON BAY   FLURRIES  17  13  84 SW7       29.86F WCI   8
GREEN BAY      CLOUDY    17  12  80 SW8       29.88F WCI   7
MANITOWOC      FLURRIES  18  12  77 SW6       29.89F WCI  10
APPLETON       CLOUDY    18  10  73 SW9       29.85F WCI   6
CLINTONVILLE   CLOUDY    18  10  73 SW6       29.86F WCI   9
OSHKOSH        CLOUDY    18  11  74 SW5       29.88F WCI  11
$$

WIZ032>034-041-042-053>061-101000-
SOUTHWEST WISCONSIN

CITY           SKY/WX    TMP DP  RH WIND       PRES   REMARKS
LA CROSSE      CLOUDY    23  15  71 S5        29.87R WCI  17
SPARTA         CLEAR     19  16  86 S3        29.87R
VIROQUA        CLOUDY    19  17  90 SW10      29.83S WCI   8
BOSCOBEL       CLOUDY    23  15  71 SW5       29.89F WCI  17
PRAIRIE DU CHI PTCLDY    24  14  66 S5        29.89F WCI  18
PLATTEVILLE    CLOUDY    23  18  82 SW14      29.90F WCI  10
$$

WIZ056-057-062-063-064-067-068-101000-
SOUTH CENTRAL WISCONSIN

CITY           SKY/WX    TMP DP  RH WIND       PRES   REMARKS
REEDSBURG      CLOUDY    20  15  81 S3        29.87F
BARABOO/DELLS  CLOUDY    20  15  79 SW7       29.86F WCI  11
LONE ROCK      CLOUDY    22  17  81 SW5       29.90F WCI  16
MINERAL POINT  CLOUDY    23  19  86 SW10      29.87F WCI  12
MADISON        CLOUDY    21  14  74 S8        29.89F WCI  11
MIDDLETON      CLOUDY    22  17  80 SW7       29.89F WCI  13
WATERTOWN      CLOUDY    19  14  80 S6        29.90F WCI  11
MONROE         CLOUDY    21  16  79 S13       29.89F WCI   9
JANESVILLE     CLOUDY    23  16  74 S6        29.93F WCI  16
$$

WIZ051-052-058>065-066-070>072-101000-
SOUTHEAST WISCONSIN

CITY           SKY/WX    TMP DP  RH WIND       PRES   REMARKS
MILWAUKEE      CLOUDY    20  12  71 SW8       29.94F WCI  10
WAUKESHA       CLOUDY    18  10  73 SW6       29.93F WCI   9
MILWAUKEE/TIMM CLOUDY    19  10  68 SW7       29.94F WCI  10
RACINE         CLOUDY    20  12  71 SW6       29.97F WCI  12
BURLINGTON     CLOUDY    29  26  88 SW7       29.94F WCI  22
KENOSHA        CLOUDY    20  12  71 SW7       29.95F WCI  11
FOND DU LAC    CLOUDY    19  10  68 S7        29.89F WCI  10
SHEBOYGAN      FLURRIES  18  11  74 SW8       29.89F WCI   8
WEST BEND      CLOUDY    19  12  73 SW6       29.90F WCI  11
JUNEAU         CLOUDY    18  12  77 S9        29.90F WCI   6
$$

LSZ147-162-101000-
LAKE SUPERIOR

STATION/POSITION TIME  TEMP    WIND        PRES    WAVE
                       AIR SEA DIR/SP/G            HT/PER
                 (UTC) (F)     (DEG/KT/KT) (MB)    (FT/S)
DEVILS ISLAND    0900   25     310/ 16/ 20 1010.6R
SAXON HARBOR     0840   17                 1009.8R
$$

LMZ867-665-643>646-101000-
LAKE MICHIGAN

STATION/POSITION TIME  TEMP    WIND        PRES    WAVE
                       AIR SEA DIR/SP/G            HT/PER
                 (UTC) (F)     (DEG/KT/KT) (MB)    (FT/S)
NORTHPORT PIER   0840   19     240/  4/  8 1010.8F
KEWAUNEE LAKESHO 0842   17     240/  5/  7 1011.2F
SHEBOYGAN LAKESH 0900   18     220/  9/ 12 1013.7F
PORT WASHINGTON  0840   19     250/  6/  8 1014.6F
MILWAUKEE LAKESH 0850   20     230/  7/ 10   N/A
KENOSHA   LAKESH 0900   20     230/  5/  8 1014.6
$$

TC  - TEMPERATURE IN CELSIUS
VSB - VISIBILITY IN STATUTE MILES
WCI - WIND CHILL INDEX
HX  - HEAT INDEX





USA.gov is the U.S. government's official web portal to all federal, state and local government web resources and services.